Back to catalog

FENGYUN 1C DEB

AliveSSO
NORAD 31620·DEBRIS·🇨🇳 China

Launched May 10, 1999 from Taiyuan Satellite Launch Center

Loading…

Next Passes (next 24 hours)

TLE

AgingSource: Space-Track

Epoch: Sep 8, 2026, 02:07 UTC

1 31620U 99025CAA 26251.08855867  .00003962  00000-0  12591-2 0  9990
2 31620  98.8824 349.6805 0018154 323.4251  36.5696 14.40419110697188

Track FENGYUN 1C DEB in real time with AllMySat

Download on the App Store